FPO7NN LFPG-EIDW

Flight info

Callsign FPO7NN
Flight time 1h 19m
Altitude 38000
Route ATRE6G ATREX J22 VESAN L613 SANDY L722 ICTAM T421 DIDZA CESQA BIBPE MEDOG LANON L18 ABLIN ABLI4L
Aircraft B738/M-V/N

Departure

Time 2026-05-07 20:27
Airport Charles de Gaulle International Airport (LFPG)

Arrival

Time 2026-05-07 21:47
Airport Dublin Airport (EIDW)
Time Latitude Longitude Altitude Speed Heading
2026-05-07 19:46 48.99977 2.53794 400 ft 0 kts 355°
2026-05-07 20:14 48.99965 2.53796 400 ft 3 kts 358°
2026-05-07 20:15 48.99945 2.53796 400 ft 3 kts
2026-05-07 20:15 48.99925 2.53792 400 ft 2 kts 15°
2026-05-07 20:15 48.99907 2.53781 400 ft 2 kts 38°
2026-05-07 20:15 48.99896 2.53763 400 ft 2 kts 83°
2026-05-07 20:16 48.99896 2.53751 400 ft 2 kts 88°
2026-05-07 20:18 48.99896 2.53752 400 ft 1 kts 88°
2026-05-07 20:18 48.99896 2.53779 400 ft 5 kts 88°
2026-05-07 20:18 48.99900 2.53847 400 ft 8 kts 79°
2026-05-07 20:19 48.99906 2.53949 400 ft 11 kts 85°
2026-05-07 20:19 48.99913 2.54074 400 ft 12 kts 85°
2026-05-07 20:19 48.99919 2.54193 400 ft 11 kts 85°
2026-05-07 20:19 48.99926 2.54309 400 ft 11 kts 85°
2026-05-07 20:20 48.99931 2.54419 400 ft 10 kts 85°
2026-05-07 20:20 48.99937 2.54524 400 ft 10 kts 85°
2026-05-07 20:20 48.99942 2.54626 400 ft 9 kts 85°
2026-05-07 20:20 48.99948 2.54723 400 ft 9 kts 84°
2026-05-07 20:21 48.99953 2.54817 400 ft 9 kts 85°
2026-05-07 20:21 48.99958 2.54906 400 ft 8 kts 85°
2026-05-07 20:21 48.99963 2.54992 400 ft 8 kts 85°
2026-05-07 20:21 48.99967 2.55073 400 ft 8 kts 85°
2026-05-07 20:22 48.99972 2.55152 400 ft 7 kts 85°
2026-05-07 20:22 48.99976 2.55225 400 ft 7 kts 85°
2026-05-07 20:22 48.99980 2.55296 400 ft 7 kts 85°
2026-05-07 20:22 48.99983 2.55367 400 ft 7 kts 85°
2026-05-07 20:23 48.99987 2.55435 400 ft 6 kts 85°
2026-05-07 20:23 48.99984 2.55498 400 ft 6 kts 122°
2026-05-07 20:23 48.99941 2.55539 400 ft 9 kts 157°
2026-05-07 20:23 48.99921 2.55553 400 ft 9 kts 151°
2026-05-07 20:24 48.99827 2.55768 400 ft 8 kts 120°
2026-05-07 20:24 48.99774 2.55794 400 ft 8 kts 175°
2026-05-07 20:24 48.99723 2.55799 400 ft 5 kts 175°
2026-05-07 20:25 48.99702 2.55801 400 ft 0 kts 175°
2026-05-07 20:26 48.99684 2.55804 400 ft 8 kts 175°
2026-05-07 20:26 48.99611 2.55846 400 ft 13 kts 116°
2026-05-07 20:26 48.99609 2.55944 400 ft 9 kts 85°
2026-05-07 20:26 48.99622 2.56199 400 ft 51 kts 82°
2026-05-07 20:27 48.99649 2.56701 400 ft 93 kts 84°
2026-05-07 20:27 48.99800 2.59970 903 ft 163 kts 88°
2026-05-07 20:27 48.99802 2.61566 1828 ft 143 kts 90°
2026-05-07 20:28 48.99865 2.63122 2246 ft 154 kts 82°
2026-05-07 20:28 48.99985 2.64829 2522 ft 169 kts 83°
2026-05-07 20:28 49.00119 2.66714 2813 ft 187 kts 84°
2026-05-07 20:28 49.00215 2.68067 3012 ft 198 kts 84°
2026-05-07 20:29 49.00560 2.73831 3674 ft 246 kts 86°
2026-05-07 20:29 49.00693 2.76467 4200 ft 256 kts 86°
2026-05-07 20:29 49.00834 2.79241 4651 ft 269 kts 86°
2026-05-07 20:30 49.00978 2.82129 5262 ft 275 kts 86°
2026-05-07 20:30 49.01280 2.84996 6039 ft 274 kts 70°
2026-05-07 20:30 49.02362 2.87362 6640 ft 279 kts 38°
2026-05-07 20:30 49.04102 2.88549 7233 ft 279 kts
2026-05-07 20:31 49.06014 2.88289 7867 ft 278 kts 342°
2026-05-07 20:31 49.07835 2.87246 8500 ft 280 kts 335°
2026-05-07 20:31 49.09600 2.85993 9121 ft 283 kts 332°
2026-05-07 20:31 49.11377 2.84634 9761 ft 285 kts 332°
2026-05-07 20:32 49.13162 2.83296 10383 ft 288 kts 332°
2026-05-07 20:32 49.14993 2.81954 10869 ft 297 kts 333°
2026-05-07 20:32 49.16919 2.80566 11126 ft 314 kts 333°
2026-05-07 20:32 49.18946 2.79123 11366 ft 330 kts 334°
2026-05-07 20:33 49.21084 2.77613 11596 ft 346 kts 334°
2026-05-07 20:33 49.23311 2.76046 11952 ft 357 kts 334°
2026-05-07 20:33 49.25575 2.74458 12464 ft 361 kts 334°
2026-05-07 20:33 49.27876 2.72846 12968 ft 365 kts 334°
2026-05-07 20:34 49.30195 2.71221 13487 ft 368 kts 334°
2026-05-07 20:34 49.32536 2.69581 14000 ft 371 kts 334°
2026-05-07 20:34 49.34897 2.67926 14520 ft 374 kts 334°
2026-05-07 20:34 49.37278 2.66256 15017 ft 378 kts 335°
2026-05-07 20:35 49.39682 2.64608 15539 ft 380 kts 336°
2026-05-07 20:35 49.42127 2.62958 16019 ft 384 kts 335°
2026-05-07 20:35 49.44551 2.61293 16521 ft 387 kts 335°
2026-05-07 20:35 49.47007 2.59588 16984 ft 390 kts 335°
2026-05-07 20:36 49.49475 2.57869 17495 ft 392 kts 335°
2026-05-07 20:36 49.51988 2.56159 17930 ft 395 kts 335°
2026-05-07 20:36 49.54493 2.54416 18379 ft 398 kts 335°
2026-05-07 20:36 49.56183 2.53222 18646 ft 401 kts 335°
2026-05-07 20:37 49.59591 2.50791 19181 ft 406 kts 335°
2026-05-07 20:37 49.62158 2.48942 19573 ft 410 kts 335°
2026-05-07 20:37 49.64753 2.47063 19958 ft 413 kts 335°
2026-05-07 20:37 49.67362 2.45162 20333 ft 417 kts 335°
2026-05-07 20:38 49.69101 2.43889 20582 ft 419 kts 335°
2026-05-07 20:38 49.71743 2.41944 20931 ft 423 kts 335°
2026-05-07 20:38 49.74408 2.39974 21291 ft 426 kts 335°
2026-05-07 20:38 49.77087 2.37967 21625 ft 430 kts 335°
2026-05-07 20:39 49.79810 2.36060 21948 ft 432 kts 339°
2026-05-07 20:39 49.82635 2.34357 22286 ft 435 kts 341°
2026-05-07 20:39 49.85498 2.32743 22612 ft 438 kts 342°
2026-05-07 20:39 49.88364 2.31128 22908 ft 441 kts 342°
2026-05-07 20:40 49.91253 2.29477 23231 ft 444 kts 342°
2026-05-07 20:40 49.94170 2.27794 23525 ft 447 kts 342°
2026-05-07 20:40 49.97083 2.26104 23821 ft 450 kts 342°
2026-05-07 20:40 49.99996 2.24409 24105 ft 453 kts 342°
2026-05-07 20:41 50.02986 2.22665 24387 ft 455 kts 342°
2026-05-07 20:41 50.05931 2.20944 24697 ft 457 kts 342°
2026-05-07 20:41 50.08961 2.19203 24997 ft 459 kts 342°
2026-05-07 20:41 50.11955 2.17481 25286 ft 461 kts 342°
2026-05-07 20:42 50.14932 2.15747 25563 ft 463 kts 342°
2026-05-07 20:42 50.18004 2.13945 25803 ft 466 kts 342°
2026-05-07 20:42 50.20998 2.12180 26070 ft 467 kts 342°
2026-05-07 20:42 50.24044 2.10385 26333 ft 469 kts 342°
2026-05-07 20:43 50.27103 2.08578 26590 ft 471 kts 342°
2026-05-07 20:43 50.30173 2.06762 26838 ft 472 kts 342°
2026-05-07 20:43 50.33250 2.04888 27065 ft 475 kts 339°
2026-05-07 20:43 50.36215 2.02595 27304 ft 479 kts 333°
2026-05-07 20:44 50.39054 1.99789 27534 ft 482 kts 326°
2026-05-07 20:44 50.41716 1.96600 27761 ft 484 kts 322°
2026-05-07 20:44 50.44282 1.93178 27977 ft 486 kts 320°
2026-05-07 20:44 50.46826 1.89644 28195 ft 487 kts 320°
2026-05-07 20:45 50.49369 1.86128 28403 ft 489 kts 320°
2026-05-07 20:45 50.51936 1.82589 28609 ft 490 kts 320°
2026-05-07 20:45 50.54497 1.79059 28867 ft 490 kts 320°
2026-05-07 20:45 50.57062 1.75523 29171 ft 489 kts 320°
2026-05-07 20:46 50.59617 1.71999 29432 ft 489 kts 320°
2026-05-07 20:46 50.62145 1.68510 29638 ft 490 kts 320°
2026-05-07 20:46 50.64726 1.64951 29920 ft 488 kts 320°
2026-05-07 20:46 50.67283 1.61418 30264 ft 486 kts 320°
2026-05-07 20:47 50.69826 1.57919 30548 ft 485 kts 320°
2026-05-07 20:47 50.72354 1.54412 30795 ft 485 kts 319°
2026-05-07 20:47 50.74885 1.50896 31066 ft 484 kts 319°
2026-05-07 20:47 50.77374 1.47436 31354 ft 482 kts 319°
2026-05-07 20:48 50.79901 1.43913 31595 ft 482 kts 319°
2026-05-07 20:48 50.82418 1.40414 31843 ft 481 kts 320°
2026-05-07 20:48 50.84951 1.36950 32111 ft 480 kts 320°
2026-05-07 20:48 50.87464 1.33466 32339 ft 480 kts 319°
2026-05-07 20:49 50.89958 1.29980 32582 ft 479 kts 319°
2026-05-07 20:49 50.92455 1.26475 32835 ft 478 kts 319°
2026-05-07 20:49 50.94944 1.22972 33060 ft 478 kts 319°
2026-05-07 20:49 50.97431 1.19467 33262 ft 478 kts 319°
2026-05-07 20:50 50.99910 1.15969 33513 ft 477 kts 319°
2026-05-07 20:50 51.02382 1.12463 33747 ft 476 kts 317°
2026-05-07 20:50 51.04619 1.08592 33952 ft 476 kts 308°
2026-05-07 20:50 51.06466 1.04205 34118 ft 477 kts 298°
2026-05-07 20:51 51.07910 0.99478 34333 ft 475 kts 292°
2026-05-07 20:51 51.08958 0.95284 34531 ft 474 kts 289°
2026-05-07 20:51 51.09926 0.90889 34701 ft 474 kts 287°
2026-05-07 20:51 51.10953 0.85987 34905 ft 473 kts 287°
2026-05-07 20:52 51.12017 0.80968 35122 ft 472 kts 288°
2026-05-07 20:52 51.13077 0.76019 35329 ft 472 kts 288°
2026-05-07 20:52 51.14181 0.71156 35536 ft 471 kts 289°
2026-05-07 20:52 51.15280 0.66189 35686 ft 472 kts 288°
2026-05-07 20:53 51.16346 0.61245 35894 ft 471 kts 288°
2026-05-07 20:53 51.17383 0.56384 36009 ft 472 kts 288°
2026-05-07 20:53 51.18433 0.51437 36023 ft 473 kts 288°
2026-05-07 20:54 51.20528 0.41519 36023 ft 471 kts 288°
2026-05-07 20:54 51.22615 0.31630 36024 ft 471 kts 288°
2026-05-07 20:55 51.24699 0.21703 36023 ft 472 kts 288°
2026-05-07 20:55 51.26761 0.11770 36024 ft 472 kts 287°
2026-05-07 20:56 51.28777 0.01852 36024 ft 472 kts 287°
2026-05-07 20:56 51.30743 -0.07964 36025 ft 465 kts 288°
2026-05-07 20:57 51.32685 -0.17710 36024 ft 458 kts 288°
2026-05-07 20:57 51.34606 -0.27406 36031 ft 458 kts 288°
2026-05-07 20:58 51.36520 -0.37127 36027 ft 459 kts 288°
2026-05-07 20:58 51.38409 -0.46451 36024 ft 459 kts 288°
2026-05-07 20:59 51.40384 -0.56149 36023 ft 459 kts 288°
2026-05-07 20:59 51.42334 -0.65925 36024 ft 460 kts 288°
2026-05-07 21:00 51.44258 -0.75692 36023 ft 460 kts 288°
2026-05-07 21:00 51.46173 -0.85483 36024 ft 460 kts 287°
2026-05-07 21:01 51.48063 -0.95210 36024 ft 461 kts 287°
2026-05-07 21:01 51.49960 -1.05025 36025 ft 460 kts 287°
2026-05-07 21:02 51.51854 -1.14876 36025 ft 461 kts 287°
2026-05-07 21:02 51.53733 -1.24705 36025 ft 461 kts 287°
2026-05-07 21:03 51.55612 -1.34582 36026 ft 462 kts 287°
2026-05-07 21:03 51.57483 -1.44472 36027 ft 462 kts 287°
2026-05-07 21:04 51.59337 -1.54319 36027 ft 463 kts 287°
2026-05-07 21:04 51.61194 -1.64239 36024 ft 463 kts 287°
2026-05-07 21:05 51.63044 -1.74170 36021 ft 464 kts 286°
2026-05-07 21:05 51.64883 -1.84099 36021 ft 464 kts 286°
2026-05-07 21:06 51.66719 -1.94062 36024 ft 463 kts 286°
2026-05-07 21:06 51.68543 -2.04019 36029 ft 463 kts 286°
2026-05-07 21:07 51.70363 -2.14001 36036 ft 464 kts 286°
2026-05-07 21:07 51.72170 -2.23970 36043 ft 464 kts 286°
2026-05-07 21:08 51.73968 -2.33946 36046 ft 462 kts 286°
2026-05-07 21:08 51.75756 -2.43915 36048 ft 462 kts 286°
2026-05-07 21:09 51.77524 -2.53827 36047 ft 461 kts 286°
2026-05-07 21:09 51.79287 -2.63772 36049 ft 460 kts 286°
2026-05-07 21:10 51.81037 -2.73695 36054 ft 459 kts 286°
2026-05-07 21:10 51.82772 -2.83586 36060 ft 458 kts 286°
2026-05-07 21:11 51.84500 -2.93495 36062 ft 457 kts 285°
2026-05-07 21:11 51.87102 -3.08318 36064 ft 456 kts 286°
2026-05-07 21:12 51.88829 -3.18204 35661 ft 455 kts 285°
2026-05-07 21:12 51.89668 -3.23140 35220 ft 451 kts 285°
2026-05-07 21:12 51.90490 -3.28006 34764 ft 447 kts 285°
2026-05-07 21:13 51.91305 -3.32852 34308 ft 444 kts 285°
2026-05-07 21:13 51.92112 -3.37662 33959 ft 438 kts 285°
2026-05-07 21:13 51.92381 -3.39267 33875 ft 435 kts 285°
2026-05-07 21:14 51.94558 -3.51191 33068 ft 419 kts 294°
2026-05-07 21:14 51.95931 -3.55328 32664 ft 417 kts 303°
2026-05-07 21:14 51.97675 -3.59108 32225 ft 415 kts 309°
2026-05-07 21:14 51.99561 -3.62607 31806 ft 413 kts 313°
2026-05-07 21:15 52.01535 -3.65992 31371 ft 412 kts 314°
2026-05-07 21:15 52.03486 -3.69290 30964 ft 410 kts 313°
2026-05-07 21:15 52.05485 -3.72680 30547 ft 409 kts 313°
2026-05-07 21:15 52.07452 -3.76024 30130 ft 408 kts 313°
2026-05-07 21:16 52.09406 -3.79356 29728 ft 406 kts 313°
2026-05-07 21:16 52.11348 -3.82670 29324 ft 405 kts 313°
2026-05-07 21:16 52.13284 -3.85981 28918 ft 404 kts 313°
2026-05-07 21:16 52.15222 -3.89297 28511 ft 403 kts 313°
2026-05-07 21:17 52.17147 -3.92596 28105 ft 401 kts 313°
2026-05-07 21:17 52.19066 -3.95876 27697 ft 400 kts 314°
2026-05-07 21:17 52.21009 -3.99128 27287 ft 398 kts 314°
2026-05-07 21:17 52.22943 -4.02335 26879 ft 397 kts 314°
2026-05-07 21:18 52.24857 -4.05573 26470 ft 395 kts 314°
2026-05-07 21:18 52.26739 -4.08795 26062 ft 393 kts 314°
2026-05-07 21:18 52.28624 -4.12044 25646 ft 391 kts 314°
2026-05-07 21:18 52.30467 -4.15233 25239 ft 390 kts 314°
2026-05-07 21:19 52.32320 -4.18446 24829 ft 388 kts 314°
2026-05-07 21:19 52.34162 -4.21645 24425 ft 386 kts 314°
2026-05-07 21:19 52.35968 -4.24783 24022 ft 369 kts 314°
2026-05-07 21:19 52.37694 -4.27785 23651 ft 353 kts 314°
2026-05-07 21:20 52.39348 -4.30664 23303 ft 347 kts 313°
2026-05-07 21:20 52.41002 -4.33540 22939 ft 346 kts 313°
2026-05-07 21:20 52.42655 -4.36421 22569 ft 345 kts 313°
2026-05-07 21:20 52.44303 -4.39279 22197 ft 344 kts 314°
2026-05-07 21:21 52.45948 -4.42093 21828 ft 343 kts 314°
2026-05-07 21:21 52.47596 -4.44948 21456 ft 342 kts 313°
2026-05-07 21:21 52.49215 -4.47776 21088 ft 341 kts 313°
2026-05-07 21:21 52.50833 -4.50615 20722 ft 340 kts 313°
2026-05-07 21:22 52.52442 -4.53447 20355 ft 338 kts 313°
2026-05-07 21:22 52.54044 -4.56275 19991 ft 337 kts 313°
2026-05-07 21:22 52.55645 -4.59103 19628 ft 336 kts 313°
2026-05-07 21:22 52.57208 -4.61869 19271 ft 334 kts 313°
2026-05-07 21:23 52.58788 -4.64667 18907 ft 333 kts 313°
2026-05-07 21:23 52.60359 -4.67451 18548 ft 332 kts 313°
2026-05-07 21:23 52.61953 -4.70275 18179 ft 328 kts 313°
2026-05-07 21:23 52.63450 -4.72926 17835 ft 315 kts 313°
2026-05-07 21:24 52.64931 -4.75553 17503 ft 314 kts 313°
2026-05-07 21:24 52.66420 -4.78197 17163 ft 313 kts 313°
2026-05-07 21:24 52.67914 -4.80812 16822 ft 313 kts 313°
2026-05-07 21:24 52.69394 -4.83424 16482 ft 312 kts 313°
2026-05-07 21:25 52.70874 -4.86051 16142 ft 312 kts 312°
2026-05-07 21:25 52.72350 -4.88679 15800 ft 311 kts 312°
2026-05-07 21:25 52.73817 -4.91295 15460 ft 311 kts 312°
2026-05-07 21:25 52.75279 -4.93904 15242 ft 306 kts 312°
2026-05-07 21:26 52.76703 -4.96442 15162 ft 297 kts 312°
2026-05-07 21:26 52.78090 -4.98921 15089 ft 289 kts 312°
2026-05-07 21:26 52.79437 -5.01307 14872 ft 289 kts 313°
2026-05-07 21:26 52.80823 -5.03738 14497 ft 291 kts 312°
2026-05-07 21:27 52.82222 -5.06219 14152 ft 292 kts 312°
2026-05-07 21:27 52.83594 -5.08670 13817 ft 293 kts 312°
2026-05-07 21:27 52.84972 -5.11143 13482 ft 294 kts 312°
2026-05-07 21:27 52.86360 -5.13644 13144 ft 295 kts 312°
2026-05-07 21:28 52.87748 -5.16150 12808 ft 295 kts 312°
2026-05-07 21:28 52.89134 -5.18657 12465 ft 291 kts 312°
2026-05-07 21:28 52.90473 -5.21081 12139 ft 279 kts 311°
2026-05-07 21:28 52.91755 -5.23405 11836 ft 274 kts 311°
2026-05-07 21:29 52.93044 -5.25742 11526 ft 276 kts 311°
2026-05-07 21:29 52.94347 -5.28107 11211 ft 277 kts 311°
2026-05-07 21:29 52.95651 -5.30473 10896 ft 278 kts 311°
2026-05-07 21:29 52.96957 -5.32843 10580 ft 279 kts 311°
2026-05-07 21:30 52.98272 -5.35227 10262 ft 280 kts 311°
2026-05-07 21:30 52.99562 -5.37574 9940 ft 271 kts 311°
2026-05-07 21:30 53.00847 -5.39901 9638 ft 274 kts 311°
2026-05-07 21:30 53.02134 -5.42236 9327 ft 275 kts 311°
2026-05-07 21:31 53.03429 -5.44593 9013 ft 276 kts 311°
2026-05-07 21:31 53.04719 -5.46941 8701 ft 277 kts 311°
2026-05-07 21:31 53.06045 -5.49246 8387 ft 279 kts 315°
2026-05-07 21:31 53.07555 -5.51282 8068 ft 281 kts 323°
2026-05-07 21:32 53.09182 -5.53040 7744 ft 271 kts 326°
2026-05-07 21:32 53.10766 -5.54657 7441 ft 263 kts 327°
2026-05-07 21:32 53.12263 -5.56182 7307 ft 246 kts 326°
2026-05-07 21:32 53.13666 -5.57632 7181 ft 229 kts 326°
2026-05-07 21:33 53.14964 -5.59002 7094 ft 212 kts 325°
2026-05-07 21:33 53.16181 -5.60287 7054 ft 202 kts 325°
2026-05-07 21:33 53.17347 -5.61519 7034 ft 194 kts 325°
2026-05-07 21:33 53.18471 -5.62705 7027 ft 189 kts 326°
2026-05-07 21:34 53.19719 -5.63398 6992 ft 194 kts 355°
2026-05-07 21:34 53.21023 -5.62798 7025 ft 199 kts 25°
2026-05-07 21:34 53.22169 -5.61470 7087 ft 203 kts 35°
2026-05-07 21:34 53.23270 -5.59976 7094 ft 205 kts 36°
2026-05-07 21:35 53.24390 -5.58506 7081 ft 204 kts 35°
2026-05-07 21:35 53.25514 -5.57080 7073 ft 204 kts 34°
2026-05-07 21:35 53.26648 -5.55665 7068 ft 204 kts 34°
2026-05-07 21:35 53.27785 -5.54243 7063 ft 204 kts 34°
2026-05-07 21:36 53.28976 -5.52996 7053 ft 202 kts 22°
2026-05-07 21:36 53.30278 -5.52220 7064 ft 200 kts 13°
2026-05-07 21:36 53.31635 -5.51686 7060 ft 200 kts
2026-05-07 21:36 53.32994 -5.51698 6910 ft 195 kts 337°
2026-05-07 21:37 53.34080 -5.52924 6766 ft 185 kts 315°
2026-05-07 21:37 53.34783 -5.54713 6456 ft 184 kts 292°
2026-05-07 21:37 53.35131 -5.56760 6146 ft 185 kts 284°
2026-05-07 21:37 53.35437 -5.58838 5946 ft 182 kts 283°
2026-05-07 21:38 53.35731 -5.60892 5798 ft 181 kts 282°
2026-05-07 21:38 53.36020 -5.62954 5647 ft 182 kts 282°
2026-05-07 21:38 53.36307 -5.65016 5496 ft 181 kts 282°
2026-05-07 21:38 53.36589 -5.67067 5345 ft 180 kts 282°
2026-05-07 21:39 53.36869 -5.69112 5194 ft 179 kts 281°
2026-05-07 21:39 53.37146 -5.71143 5045 ft 179 kts 281°
2026-05-07 21:39 53.37418 -5.73153 4897 ft 179 kts 281°
2026-05-07 21:39 53.37696 -5.75203 4747 ft 178 kts 281°
2026-05-07 21:40 53.37969 -5.77227 4598 ft 178 kts 281°
2026-05-07 21:40 53.38240 -5.79231 4451 ft 178 kts 281°
2026-05-07 21:40 53.38510 -5.81238 4303 ft 177 kts 281°
2026-05-07 21:40 53.38782 -5.83253 4156 ft 176 kts 281°
2026-05-07 21:41 53.39051 -5.85247 4010 ft 176 kts 281°
2026-05-07 21:41 53.39320 -5.87241 3863 ft 176 kts 281°
2026-05-07 21:41 53.39589 -5.89234 3717 ft 175 kts 281°
2026-05-07 21:41 53.39857 -5.91219 3571 ft 175 kts 281°
2026-05-07 21:42 53.40128 -5.93210 3424 ft 173 kts 281°
2026-05-07 21:42 53.40357 -5.95095 3261 ft 158 kts 278°
2026-05-07 21:42 53.40500 -5.96867 3129 ft 149 kts 274°
2026-05-07 21:42 53.40596 -5.98560 3002 ft 143 kts 273°
2026-05-07 21:43 53.40684 -6.00200 2891 ft 140 kts 273°
2026-05-07 21:43 53.40771 -6.01825 2781 ft 139 kts 273°
2026-05-07 21:43 53.40827 -6.02891 2714 ft 139 kts 273°
2026-05-07 21:44 53.41010 -6.06340 2514 ft 139 kts 273°
2026-05-07 21:44 53.41095 -6.07949 2454 ft 138 kts 273°
2026-05-07 21:44 53.41182 -6.09574 2200 ft 141 kts 273°
2026-05-07 21:44 53.41268 -6.11198 1972 ft 140 kts 273°
2026-05-07 21:45 53.41354 -6.12802 1789 ft 140 kts 273°
2026-05-07 21:45 53.41442 -6.14426 1606 ft 140 kts 273°
2026-05-07 21:45 53.41530 -6.16072 1415 ft 144 kts 273°
2026-05-07 21:45 53.41621 -6.17752 1229 ft 145 kts 273°
2026-05-07 21:46 53.41712 -6.19431 1038 ft 144 kts 273°
2026-05-07 21:46 53.41813 -6.21094 797 ft 144 kts 273°
2026-05-07 21:46 53.41902 -6.22762 532 ft 142 kts 273°
2026-05-07 21:46 53.41989 -6.24408 330 ft 141 kts 273°
2026-05-07 21:47 53.42083 -6.26021 251 ft 131 kts 271°
2026-05-07 21:47 53.42148 -6.27280 250 ft 87 kts 271°
2026-05-07 21:47 53.42204 -6.27849 250 ft 26 kts 297°
2026-05-07 21:47 53.42253 -6.27996 250 ft 5 kts 300°
2026-05-07 21:48 53.42270 -6.28043 250 ft 5 kts 300°
2026-05-07 21:48 53.42286 -6.28087 250 ft 4 kts 300°
2026-05-07 21:48 53.42308 -6.28121 250 ft 4 kts 329°
2026-05-07 21:49 53.42362 -6.28114 250 ft 5 kts 61°
2026-05-07 21:49 53.42365 -6.28050 250 ft 6 kts 93°
2026-05-07 21:49 53.42363 -6.27986 250 ft 5 kts 93°
2026-05-07 21:49 53.42359 -6.27924 250 ft 5 kts 101°
2026-05-07 21:50 53.42354 -6.27853 250 ft 8 kts 96°
2026-05-07 21:50 53.42347 -6.27734 250 ft 12 kts 95°
2026-05-07 21:50 53.42344 -6.27686 250 ft 12 kts 95°
2026-05-07 21:50 53.42331 -6.27452 250 ft 11 kts 95°
2026-05-07 21:51 53.42325 -6.27324 250 ft 11 kts 95°
2026-05-07 21:51 53.42318 -6.27203 250 ft 10 kts 96°
2026-05-07 21:51 53.42311 -6.27086 250 ft 10 kts 95°
2026-05-07 21:52 53.42300 -6.26874 250 ft 9 kts 95°
2026-05-07 21:52 53.42294 -6.26772 250 ft 9 kts 95°
2026-05-07 21:52 53.42289 -6.26673 250 ft 8 kts 95°
2026-05-07 21:52 53.42283 -6.26578 250 ft 8 kts 95°
2026-05-07 21:53 53.42278 -6.26488 250 ft 8 kts 95°
2026-05-07 21:53 53.42273 -6.26398 250 ft 7 kts 95°
2026-05-07 21:53 53.42268 -6.26314 250 ft 7 kts 95°
2026-05-07 21:53 53.42268 -6.26232 250 ft 7 kts 83°
2026-05-07 21:54 53.42278 -6.26179 250 ft 7 kts 67°